Regional Weather Roundup
Issued by NWS Northern Indiana

Home | Current Version | Previous Version | Graphics & Text | Print | Product List | Glossary On
Versions: 1 2 3 4 5 6 7 8 9 10 11 12 13 14 15 16 17 18 19 20 21 22 23 24 25 26 27 28 29 30 31 32 33 34 35 36 37 38 39 40 41 42 43 44 45 46 47 48 49 50
000
ASUS43 KIWX 221010
RWRIWX

KIWX WEATHER ROUNDUP
NATIONAL WEATHER SERVICE NORTHERN INDIANA
600 AM EDT TUE AUG 22 2017

NOTE: "FAIR" INDICATES FEW OR NO CLOUDS BELOW 12,000 FEET WITH NO
SIGNIFICANT WEATHER AND/OR OBSTRUCTIONS TO VISIBILITY.

* THESE STATIONS ARE NOT UNDER NWS QUALITY CONTROL. THEY ALSO MAY NOT
  REPORT WEATHER SUCH AS PRECIPITATION OR FOG.

INZ001>027-221100-
NORTHERN INDIANA

CITY           SKY/WX    TMP DP  RH WIND       PRES   REMARKS
GARY*          LGT RAIN  72  70  94 SW9       29.89F
VALPARAISO     LGT RAIN  72  70  93 SW14      29.91F FOG
MICHIGAN CITY* RAIN      70  70 100 SW13G20   29.89F
LAPORTE*       RAIN      69  68  96 SW14G25   29.91F
KNOX*          CLOUDY    68  68 100 SW12G20   29.91F
SOUTH BEND     LGT RAIN  69  69 100 SW16      29.89R
GOSHEN         RAIN      70  66  87 SW14      29.91S FOG
MONTICELLO*    HVY RAIN  68  67  95 W6        29.94S
LOGANSPORT*    RAIN      68  66  94 W6        29.94F
ROCHESTER*     HVY RAIN N/A N/A N/A W12G18    29.94R
WARSAW*        HVY RAIN  68  68 100 SW9       29.93R
AUBURN*        RAIN      70  68  94 W3        29.92F
FORT WAYNE     RAIN      70  68  93 W9        29.91F
HUNTINGTON*    LGT RAIN  70  68  96 W8        29.95R
PERU/GRISSOM   LGT RAIN  70  70 100 W9        29.94R
MARION*        CLOUDY    70  68  94 W5        29.95S FOG

$$
INZ028>050-221100-
CENTRAL INDIANA

CITY           SKY/WX    TMP DP  RH WIND       PRES   REMARKS
LAFAYETTE      HVY RAIN  68  68 100 NW5       29.94R FOG
KOKOMO*        LGT RAIN  70  70 100 W9        29.96R
MUNCIE*        CLOUDY    77  68  73 SW8       29.94S
INDIANAPOLIS   CLOUDY    74  70  87 S9        29.93F

$$
MIZ043>046-050>051-056>058-064>065-071>073-077>080-221100-
SOUTHWEST LOWER MICHIGAN

CITY           SKY/WX    TMP DP  RH WIND       PRES   REMARKS
BATTLE CREEK   LGT RAIN  71  68  90 SW17      29.87S
BENTON HARBOR  CLOUDY    72  67  84 SW18G28   29.85F
COLDWATER*     DRIZZLE   70  70  98 SW9G18    29.89R
HILLSDALE*     LGT RAIN  70  66  88 SW10      29.89F
HOLLAND        CLOUDY    73  70  90 SW24G31   29.82S
GRAND RAPIDS   CLOUDY    72  69  90 SW21G32   29.81F
KALAMAZOO      LGT RAIN  71  66  84 SW17      29.87S
STURGIS*       LGT RAIN  70  66  89 SW14G24   29.88F
THREE RIVERS*  LGT RAIN  71  68  90 SW8       29.90R

$$
OHZ001>008-015>018-024>025-221100-
NORTHWEST OHIO

CITY           SKY/WX    TMP DP  RH WIND       PRES   REMARKS
DEFIANCE       LGT RAIN  72  68  87 SW5       29.91F
FINDLAY        MOCLDY    73  67  81 S9        29.91F
TOLEDO EXPRESS CLOUDY    72  69  90 SW10      29.90R
TOLEDO METCALF MOCLDY    74  70  87 W10       29.91R
LIMA           CLOUDY    74  69  85 S12       29.93F

$$
AND FOR LAKE MICHIGAN COASTAL AND OPEN LAKE BUOY OBSERVATIONS

STATION/POSITION TEMP    WIND        PRES    VSBY  WAVE
                 AIR SEA DIR/SP/G                  HT/PER
                 (F)     (DEG/KT/KT) (MB)    (MI)  (FT/S)
CALUMET HARBOR    71     220/  6/ 11 1011.2S
MICHIGAN CITY     71     190/ 19/ 21   N/A
BURNS HARBOR      72     220/ 15/ 24 1012.5R
SAINT JOSEPH      74     220/ 23/ 30 1011.5
SOUTH LAKE BUOY   73 72  250/ 16/ 21 1009.1F         4/ 6
4 MI NW BRIDGMAN  73 73  230/ 19/ 27 1010.9          5/ 4
MICHIGAN CITY     73 74  230/ 19/ 25   N/A           4/ 4

$$
&&



USA.gov is the U.S. government's official web portal to all federal, state and local government web resources and services.